Weather History for Atlanta Dekalb, GA

Change the Weather History Date:

Friday, June 20, 2014

  Actual Average Record
Temperature  
Mean Temperature 81 °F 78 °F  
Max Temperature 94 °F 88 °F 96 °F (2006)
Min Temperature 68 °F 68 °F 61 °F (1999)
Cooling Degree Days 16 13  
Month to date cooling degree days 245 217  
Year to date cooling degree days 462 428  
Since 1 June cooling degree days 245 217  
Growing Degree Days 31 (Base 50)    
Moisture  
Dew Point 66 °F    
Average Humidity 63    
Maximum Humidity 84    
Minimum Humidity 41    
Precipitation  
Precipitation 0.08 in 0.17 in 0.29 in (2000)
Month to date precipitation 0.86 2.96  
Year to date precipitation 19.74 25.45  
Sea Level Pressure  
Sea Level Pressure 30.01 in    
Wind  
Wind Speed 5 mph (NW)    
Max Wind Speed 14 mph    
Max Gust Speed 26 mph    
Visibility 9 miles    
Events Rain    
T = Trace of Precipitation, MM = Missing Value Source: NWS Daily Summary

Daily Weather History Graph

Daily Weather History Graph

Search for Another Location

Airport:

Trip Planner

Search our weather history database for the weather conditions in past years. The results will help you decide how hot, cold, wet, or windy it might be!

Date:

Astronomy

Jun. 20, 2014 Rise Set
Actual Time 6:26 AM EDT 8:51 PM EDT
Civil Twilight 5:57 AM EDT 9:20 PM EDT
Nautical Twilight 5:21 AM EDT 9:56 PM EDT
Astronomical Twilight 4:42 AM EDT 10:35 PM EDT
Moon 1:48 AM EDT (6/20) 2:39 PM EDT (6/20)
Length of Visible Light 15h 22m
Length of Day
14h 24m
Last Quarter, 40% of the Moon is Illuminated
Jun 20
Last Quarter
Jun 27
New
Jul 5
First Quarter
Jul 12
Full
Jul 18
Last Quarter

Hourly Weather History & Observations

Time (EDT) Temp. Heat Index Dew Point Humidity Pressure Visibility Wind Dir Wind Speed Gust Speed Precip Events Conditions
12:53 AM 73.0 °F - 63.0 °F 71% 30.05 in 10.0 mi Calm Calm - N/A   Clear
1:53 AM 71.1 °F - 64.9 °F 81% 30.04 in 9.0 mi Calm Calm - N/A   Clear
2:53 AM 72.0 °F - 64.0 °F 76% 30.02 in 9.0 mi Calm Calm - N/A   Clear
3:53 AM 70.0 °F - 64.0 °F 81% 30.00 in 9.0 mi Calm Calm - N/A   Clear
4:53 AM 70.0 °F - 64.9 °F 84% 30.00 in 8.0 mi Calm Calm - N/A   Clear
5:53 AM 70.0 °F - 64.0 °F 81% 30.01 in 9.0 mi Calm Calm - N/A   Clear
6:53 AM 69.1 °F - 64.9 °F 87% 30.04 in 6.0 mi Calm Calm - N/A   Clear
7:53 AM 75.0 °F - 66.9 °F 76% 30.04 in 6.0 mi NW 4.6 mph - N/A   Haze
8:53 AM 80.1 °F 82.1 °F 66.0 °F 62% 30.05 in 7.0 mi NW 8.1 mph - N/A   Clear
9:53 AM 82.9 °F 85.0 °F 66.0 °F 56% 30.05 in 8.0 mi NW 9.2 mph - N/A   Clear
10:53 AM 87.1 °F 89.9 °F 66.9 °F 51% 30.04 in 9.0 mi NNW 11.5 mph - N/A   Clear
11:53 AM 88.0 °F 90.7 °F 66.9 °F 49% 30.04 in 9.0 mi NW 6.9 mph - N/A   Clear
12:53 PM 90.0 °F 92.4 °F 66.0 °F 45% 30.03 in 9.0 mi NNW 6.9 mph - N/A   Clear
1:53 PM 91.0 °F 93.8 °F 66.0 °F 44% 30.01 in 9.0 mi North 4.6 mph - N/A   Scattered Clouds
2:53 PM 93.0 °F 95.9 °F 66.0 °F 41% 29.99 in 10.0 mi WNW 11.5 mph - N/A   Clear
3:53 PM 82.9 °F 84.6 °F 64.9 °F 54% 29.99 in 9.0 mi NNE 9.2 mph 16.1 mph N/A   Overcast
4:53 PM 77.0 °F - 69.1 °F 76% 30.00 in 9.0 mi West 6.9 mph - 0.08 in Rain Light Rain
5:53 PM 86.0 °F 90.1 °F 69.1 °F 57% 29.96 in 10.0 mi Calm Calm - N/A   Clear
6:53 PM 86.0 °F 86.3 °F 62.1 °F 44% 29.96 in 10.0 mi WNW 8.1 mph - N/A   Clear
7:53 PM 84.9 °F 85.9 °F 63.0 °F 48% 29.95 in 10.0 mi NW 3.5 mph - N/A   Clear
8:53 PM 81.0 °F 83.0 °F 66.0 °F 60% 29.97 in 10.0 mi NNW 3.5 mph - N/A   Clear
9:53 PM 78.1 °F - 68.0 °F 71% 29.97 in 10.0 mi NW 3.5 mph - N/A   Clear
10:53 PM 79.0 °F - 66.9 °F 66% 29.97 in 10.0 mi NW 4.6 mph - N/A   Clear
11:53 PM 77.0 °F - 68.0 °F 74% 29.96 in 9.0 mi West 5.8 mph - N/A   Clear